Weather History for Milton, FL

Change the Weather History Date:

Monday, May 26, 2014

  Actual Average (KNSE) Record (KNSE)
Temperature  
Mean Temperature 77 °F -  
Max Temperature 90 °F 83 °F 99 °F (2012)
Min Temperature 66 °F 64 °F 57 °F (2013)
Cooling Degree Days 12    
Growing Degree Days 27 (Base 50)    
Moisture  
Dew Point 69 °F    
Average Humidity 74    
Maximum Humidity 90    
Minimum Humidity 55    
Precipitation  
Precipitation 0.00 in - - ()
Sea Level Pressure  
Sea Level Pressure 30.09 in    
Wind  
Wind Speed 4 mph (SSE)    
Max Wind Speed 10 mph    
Max Gust Speed 17 mph    
Visibility 8 miles    
Events      
Averages and records for this station are not official NWS values.
T = Trace of Precipitation, MM = Missing Value Source: NWS Daily Summary

Daily Weather History Graph

Daily Weather History Graph

Search for Another Location

Airport:

Trip Planner

Search our weather history database for the weather conditions in past years. The results will help you decide how hot, cold, wet, or windy it might be!

Date:

Astronomy

May. 26, 2014 Rise Set
Actual Time 5:47 AM CDT 7:42 PM CDT
Civil Twilight 5:20 AM CDT 8:09 PM CDT
Nautical Twilight 4:48 AM CDT 8:42 PM CDT
Astronomical Twilight 4:13 AM CDT 9:17 PM CDT
Moon 4:19 AM CDT (5/26) 5:53 PM CDT (5/26)
Length of Visible Light 14h 49m
Length of Day
13h 55m
Waning Crescent, 5% of the Moon is Illuminated
May 26
Waning Crescent
May 28
New
Jun 5
First Quarter
Jun 12
Full
Jun 19
Last Quarter

Hourly Weather History & Observations

Time (CDT) Temp. Heat Index Dew Point Humidity Pressure Visibility Wind Dir Wind Speed Gust Speed Precip Events Conditions
12:56 AM 69.1 °F - 64.0 °F 84% 30.06 in 6.0 mi ENE 3.5 mph - N/A   Haze
1:56 AM 66.9 °F - 62.1 °F 84% 30.06 in 4.0 mi Calm Calm - N/A   Haze
2:12 AM 66.9 °F - 63.0 °F 87% 30.10 in 2.5 mi Calm Calm - N/A   Clear
2:56 AM 69.1 °F - 66.0 °F 90% 30.05 in 4.0 mi Calm Calm - N/A   Clear
3:56 AM 72.0 °F - 66.0 °F 81% 30.06 in 6.0 mi East 6.9 mph - N/A   Haze
4:56 AM 70.0 °F - 66.0 °F 87% 30.08 in 7.0 mi East 3.5 mph - N/A   Clear
5:56 AM 66.9 °F - 63.0 °F 87% 30.10 in 2.5 mi ENE 4.6 mph - N/A   Clear
6:05 AM 70.0 °F - 64.9 °F 84% 30.14 in 6.0 mi Calm Calm - N/A   Haze
6:56 AM 72.0 °F - 66.9 °F 84% 30.11 in 5.0 mi Calm Calm - N/A   Haze
7:56 AM 75.9 °F - 69.1 °F 79% 30.13 in 8.0 mi ESE 5.8 mph - N/A   Clear
8:56 AM 81.0 °F 84.9 °F 71.1 °F 72% 30.14 in 10.0 mi SSE 3.5 mph - N/A   Clear
9:56 AM 84.0 °F 87.8 °F 69.1 °F 61% 30.13 in 10.0 mi ESE 4.6 mph - N/A   Partly Cloudy
10:56 AM 86.0 °F 90.1 °F 69.1 °F 57% 30.12 in 10.0 mi Variable 3.5 mph - N/A   Scattered Clouds
11:56 AM 87.1 °F 92.0 °F 70.0 °F 57% 30.12 in 10.0 mi SSW 8.1 mph - N/A   Scattered Clouds
12:56 PM 87.1 °F 92.8 °F 71.1 °F 59% 30.10 in 10.0 mi Variable 5.8 mph - N/A   Scattered Clouds
1:56 PM 88.0 °F 93.8 °F 71.1 °F 57% 30.08 in 10.0 mi SSW 6.9 mph 17.3 mph N/A   Partly Cloudy
2:42 PM 88.0 °F 92.9 °F 70.0 °F 55% 30.11 in 10.0 mi South 9.2 mph - N/A   Partly Cloudy
2:56 PM 88.0 °F 93.8 °F 71.1 °F 57% 30.06 in 10.0 mi SSW 8.1 mph - N/A   Clear
3:56 PM 87.1 °F 92.0 °F 70.0 °F 57% 30.05 in 10.0 mi South 10.4 mph - N/A   Partly Cloudy
4:56 PM 87.1 °F 92.0 °F 70.0 °F 57% 30.05 in 10.0 mi South 9.2 mph - N/A   Clear
5:56 PM 84.9 °F 90.7 °F 72.0 °F 65% 30.05 in 10.0 mi South 9.2 mph - N/A   Clear
6:56 PM 82.9 °F 88.0 °F 72.0 °F 69% 30.06 in 9.0 mi South 9.2 mph - N/A   Clear
7:56 PM 79.0 °F - 72.0 °F 79% 30.07 in 9.0 mi South 5.8 mph - N/A   Clear
8:56 PM 78.1 °F - 72.0 °F 81% 30.08 in 8.0 mi South 3.5 mph - N/A   Clear
9:56 PM 75.9 °F - 71.1 °F 85% 30.09 in 7.0 mi ESE 5.8 mph - N/A   Clear
10:56 PM 75.0 °F - 71.1 °F 87% 30.09 in 6.0 mi SE 4.6 mph - N/A   Partly Cloudy
11:56 PM 75.0 °F - 72.0 °F 90% 30.09 in 5.0 mi SSE 5.8 mph - N/A   Clear